Terminal Aerodrome Forecast
Issued by NWS Knoxville/Tri Cities, TN

Home | Current Version | Previous Version | Text Only | Print | Product List | Glossary On
Versions: 1 2 3 4 5 6 7 8 9 10 11 12 13 14 15 16 17 18 19 20 21 22 23 24 25 26 27 28 29 30 31
000
FTUS44 KMRX 021720
TAFTRI
TAF
KTRI 021720Z 0218/0318 01008KT P6SM BKN020
     FM022000 01005KT P6SM SCT250
     FM030800 00000KT 4SM -RA BR OVC025
     FM031200 00000KT 2SM -RA BR OVC010
     FM031600 00000KT 4SM -RA BR OVC010=

USA.gov is the U.S. government's official web portal to all federal, state and local government web resources and services.